Time,TemperatureF,DewpointF,PressureIn,WindDirection,WindDirectionDegrees,WindSpeedMPH,WindSpeedGustMPH,Humidity,HourlyPrecipIn,Conditions,Clouds,dailyrainin,SoftwareType,DateUTC
2013-07-09 00:00:00,78.7,75.2,30.12,West,270,1.0,-999.0,89,0.00,,,0.26,Wunderground v.1.15,2013-07-09 04:00:00,
2013-07-09 00:05:00,78.7,75.2,30.12,West,270,1.0,-999.0,89,0.00,,,0.26,Wunderground v.1.15,2013-07-09 04:05:00,
2013-07-09 00:10:00,78.7,75.2,30.12,West,270,1.0,-999.0,89,0.00,,,0.26,Wunderground v.1.15,2013-07-09 04:10:00,
2013-07-09 00:15:00,78.7,75.2,30.12,West,270,1.0,-999.0,89,0.00,,,0.26,Wunderground v.1.15,2013-07-09 04:15:00,
2013-07-09 00:20:00,78.7,75.2,30.12,West,270,1.0,-999.0,89,0.00,,,0.26,Wunderground v.1.15,2013-07-09 04:20:00,
2013-07-09 00:25:00,78.7,75.2,30.12,West,270,1.0,-999.0,89,0.00,,,0.26,Wunderground v.1.15,2013-07-09 04:25:00,
2013-07-09 00:30:00,78.7,75.2,30.12,West,270,1.0,-999.0,89,0.00,,,0.26,Wunderground v.1.15,2013-07-09 04:30:00,
2013-07-09 00:35:00,78.7,75.2,30.12,West,270,1.0,-999.0,89,0.00,,,0.26,Wunderground v.1.15,2013-07-09 04:35:00,
2013-07-09 00:40:00,78.7,75.2,30.12,West,270,1.0,-999.0,89,0.00,,,0.26,Wunderground v.1.15,2013-07-09 04:40:00,
2013-07-09 00:45:00,78.5,75.3,30.13,West,270,2.0,-999.0,90,0.00,,,0.26,Wunderground v.1.15,2013-07-09 04:45:00,
2013-07-09 00:50:00,78.5,75.3,30.13,West,270,2.0,-999.0,90,0.00,,,0.26,Wunderground v.1.15,2013-07-09 04:50:00,
2013-07-09 00:55:00,78.5,75.3,30.13,West,270,2.0,-999.0,90,0.00,,,0.26,Wunderground v.1.15,2013-07-09 04:55:00,
2013-07-09 01:00:00,78.5,75.3,30.13,West,270,2.0,-999.0,90,0.00,,,0.26,Wunderground v.1.15,2013-07-09 05:00:00,
2013-07-09 01:05:00,78.5,75.3,30.13,West,270,2.0,-999.0,90,0.00,,,0.26,Wunderground v.1.15,2013-07-09 05:05:00,
2013-07-09 01:10:00,78.5,75.3,30.13,West,270,2.0,-999.0,90,0.00,,,0.26,Wunderground v.1.15,2013-07-09 05:10:00,
2013-07-09 01:15:00,78.1,74.9,30.13,West,270,2.0,-999.0,90,0.00,,,0.26,Wunderground v.1.15,2013-07-09 05:15:00,
2013-07-09 01:20:00,78.1,74.9,30.13,West,270,2.0,-999.0,90,0.00,,,0.26,Wunderground v.1.15,2013-07-09 05:20:00,
2013-07-09 01:25:00,78.1,74.9,30.13,West,270,2.0,-999.0,90,0.00,,,0.26,Wunderground v.1.15,2013-07-09 05:25:00,
2013-07-09 01:30:00,78.1,74.9,30.13,West,270,2.0,-999.0,90,0.00,,,0.26,Wunderground v.1.15,2013-07-09 05:30:00,
2013-07-09 01:35:00,78.1,74.9,30.13,West,270,2.0,-999.0,90,0.00,,,0.26,Wunderground v.1.15,2013-07-09 05:35:00,
2013-07-09 01:40:00,78.1,74.9,30.13,West,270,2.0,-999.0,90,0.00,,,0.26,Wunderground v.1.15,2013-07-09 05:40:00,
2013-07-09 01:45:00,77.5,74.7,30.12,West,270,1.0,-999.0,91,0.00,,,0.26,Wunderground v.1.15,2013-07-09 05:45:00,
2013-07-09 01:50:00,77.5,74.7,30.12,West,270,1.0,-999.0,91,0.00,,,0.26,Wunderground v.1.15,2013-07-09 05:50:00,
2013-07-09 01:55:00,77.5,74.7,30.12,West,270,1.0,-999.0,91,0.00,,,0.26,Wunderground v.1.15,2013-07-09 05:55:00,
2013-07-09 02:00:00,77.5,74.7,30.12,West,270,1.0,-999.0,91,0.00,,,0.26,Wunderground v.1.15,2013-07-09 06:00:00,
2013-07-09 02:05:00,77.5,74.7,30.12,West,270,1.0,-999.0,91,0.00,,,0.26,Wunderground v.1.15,2013-07-09 06:05:00,
2013-07-09 02:10:00,77.5,74.7,30.12,West,270,1.0,-999.0,91,0.00,,,0.26,Wunderground v.1.15,2013-07-09 06:10:00,
2013-07-09 02:15:00,77.0,74.5,30.11,West,270,1.0,-999.0,92,0.00,,,0.26,Wunderground v.1.15,2013-07-09 06:15:00,
2013-07-09 02:20:00,77.0,74.5,30.11,West,270,1.0,-999.0,92,0.00,,,0.26,Wunderground v.1.15,2013-07-09 06:20:00,
2013-07-09 02:25:00,77.0,74.5,30.11,West,270,1.0,-999.0,92,0.00,,,0.26,Wunderground v.1.15,2013-07-09 06:25:00,
2013-07-09 02:30:00,77.0,74.5,30.11,West,270,1.0,-999.0,92,0.00,,,0.26,Wunderground v.1.15,2013-07-09 06:30:00,
2013-07-09 02:35:00,77.0,74.5,30.11,West,270,1.0,-999.0,92,0.00,,,0.26,Wunderground v.1.15,2013-07-09 06:35:00,
2013-07-09 02:40:00,77.0,74.5,30.11,West,270,1.0,-999.0,92,0.00,,,0.26,Wunderground v.1.15,2013-07-09 06:40:00,
2013-07-09 02:45:00,76.3,73.8,30.11,West,270,0.0,-999.0,92,0.00,,,0.26,Wunderground v.1.15,2013-07-09 06:45:00,
2013-07-09 02:50:00,76.3,73.8,30.11,West,270,0.0,-999.0,92,0.00,,,0.26,Wunderground v.1.15,2013-07-09 06:50:00,
2013-07-09 02:55:00,76.3,73.8,30.11,West,270,0.0,-999.0,92,0.00,,,0.26,Wunderground v.1.15,2013-07-09 06:55:00,
2013-07-09 03:00:00,76.3,73.8,30.11,West,270,0.0,-999.0,92,0.00,,,0.26,Wunderground v.1.15,2013-07-09 07:00:00,
2013-07-09 03:05:00,76.3,73.8,30.11,West,270,0.0,-999.0,92,0.00,,,0.26,Wunderground v.1.15,2013-07-09 07:05:00,
2013-07-09 03:10:00,76.3,73.8,30.11,West,270,0.0,-999.0,92,0.00,,,0.26,Wunderground v.1.15,2013-07-09 07:10:00,
2013-07-09 03:15:00,76.1,73.9,30.11,West,270,0.0,-999.0,93,0.00,,,0.26,Wunderground v.1.15,2013-07-09 07:15:00,
2013-07-09 03:20:00,76.1,73.9,30.11,West,270,0.0,-999.0,93,0.00,,,0.26,Wunderground v.1.15,2013-07-09 07:20:00,
2013-07-09 03:25:00,76.1,73.9,30.11,West,270,0.0,-999.0,93,0.00,,,0.26,Wunderground v.1.15,2013-07-09 07:25:00,
2013-07-09 03:30:00,76.1,73.9,30.11,West,270,0.0,-999.0,93,0.00,,,0.26,Wunderground v.1.15,2013-07-09 07:30:00,
2013-07-09 03:35:00,76.1,73.9,30.11,West,270,0.0,-999.0,93,0.00,,,0.26,Wunderground v.1.15,2013-07-09 07:35:00,
2013-07-09 03:40:00,76.1,73.9,30.11,West,270,0.0,-999.0,93,0.00,,,0.26,Wunderground v.1.15,2013-07-09 07:40:00,
2013-07-09 03:45:00,75.9,73.7,30.11,West,270,1.0,-999.0,93,0.00,,,0.26,Wunderground v.1.15,2013-07-09 07:45:00,
2013-07-09 03:50:00,75.9,73.7,30.11,West,270,1.0,-999.0,93,0.00,,,0.26,Wunderground v.1.15,2013-07-09 07:50:00,
2013-07-09 03:55:00,75.9,73.7,30.11,West,270,1.0,-999.0,93,0.00,,,0.26,Wunderground v.1.15,2013-07-09 07:55:00,
2013-07-09 04:00:00,75.9,73.7,30.11,West,270,1.0,-999.0,93,0.00,,,0.26,Wunderground v.1.15,2013-07-09 08:00:00,
2013-07-09 04:05:00,75.9,73.7,30.11,West,270,1.0,-999.0,93,0.00,,,0.26,Wunderground v.1.15,2013-07-09 08:05:00,
2013-07-09 04:10:00,75.9,73.7,30.11,West,270,1.0,-999.0,93,0.00,,,0.26,Wunderground v.1.15,2013-07-09 08:10:00,
2013-07-09 04:15:00,75.7,73.2,30.11,West,270,3.0,-999.0,92,0.00,,,0.26,Wunderground v.1.15,2013-07-09 08:15:00,
2013-07-09 04:20:00,75.7,73.2,30.11,West,270,3.0,-999.0,92,0.00,,,0.26,Wunderground v.1.15,2013-07-09 08:20:00,
2013-07-09 04:25:00,75.7,73.2,30.11,West,270,3.0,-999.0,92,0.00,,,0.26,Wunderground v.1.15,2013-07-09 08:25:00,
2013-07-09 04:30:00,75.7,73.2,30.11,West,270,3.0,-999.0,92,0.00,,,0.26,Wunderground v.1.15,2013-07-09 08:30:00,
2013-07-09 04:35:00,75.7,73.2,30.11,West,270,3.0,-999.0,92,0.00,,,0.26,Wunderground v.1.15,2013-07-09 08:35:00,
2013-07-09 04:40:00,75.7,73.2,30.11,West,270,3.0,-999.0,92,0.00,,,0.26,Wunderground v.1.15,2013-07-09 08:40:00,
2013-07-09 04:45:00,75.3,72.5,30.10,WSW,248,2.0,-999.0,91,0.00,,,0.26,Wunderground v.1.15,2013-07-09 08:45:00,
2013-07-09 04:50:00,75.3,72.5,30.10,WSW,248,2.0,-999.0,91,0.00,,,0.26,Wunderground v.1.15,2013-07-09 08:50:00,
2013-07-09 04:55:00,75.3,72.5,30.10,WSW,248,2.0,-999.0,91,0.00,,,0.26,Wunderground v.1.15,2013-07-09 08:55:00,
2013-07-09 05:00:00,75.3,72.5,30.10,WSW,248,2.0,-999.0,91,0.00,,,0.26,Wunderground v.1.15,2013-07-09 09:00:00,
2013-07-09 05:05:00,75.3,72.5,30.10,WSW,248,2.0,-999.0,91,0.00,,,0.26,Wunderground v.1.15,2013-07-09 09:05:00,
2013-07-09 05:10:00,75.3,72.5,30.10,WSW,248,2.0,-999.0,91,0.00,,,0.26,Wunderground v.1.15,2013-07-09 09:10:00,
2013-07-09 05:15:00,74.9,72.1,30.10,West,270,2.0,-999.0,91,0.00,,,0.26,Wunderground v.1.15,2013-07-09 09:15:00,
2013-07-09 05:20:00,74.9,72.1,30.10,West,270,2.0,-999.0,91,0.00,,,0.26,Wunderground v.1.15,2013-07-09 09:20:00,
2013-07-09 05:25:00,74.9,72.1,30.10,West,270,2.0,-999.0,91,0.00,,,0.26,Wunderground v.1.15,2013-07-09 09:25:00,
2013-07-09 05:30:00,74.9,72.1,30.10,West,270,2.0,-999.0,91,0.00,,,0.26,Wunderground v.1.15,2013-07-09 09:30:00,
2013-07-09 05:35:00,74.9,72.1,30.10,West,270,2.0,-999.0,91,0.00,,,0.26,Wunderground v.1.15,2013-07-09 09:35:00,
2013-07-09 05:40:00,74.9,72.1,30.10,West,270,2.0,-999.0,91,0.00,,,0.26,Wunderground v.1.15,2013-07-09 09:40:00,
2013-07-09 05:45:00,74.4,71.6,30.10,WSW,248,0.0,-999.0,91,0.00,,,0.26,Wunderground v.1.15,2013-07-09 09:45:00,
2013-07-09 05:50:00,74.4,71.6,30.10,WSW,248,0.0,-999.0,91,0.00,,,0.26,Wunderground v.1.15,2013-07-09 09:50:00,
2013-07-09 05:55:00,74.4,71.6,30.10,WSW,248,0.0,-999.0,91,0.00,,,0.26,Wunderground v.1.15,2013-07-09 09:55:00,
2013-07-09 06:00:00,74.4,71.6,30.10,WSW,248,0.0,-999.0,91,0.00,,,0.26,Wunderground v.1.15,2013-07-09 10:00:00,
2013-07-09 06:05:00,74.4,71.6,30.10,WSW,248,0.0,-999.0,91,0.00,,,0.26,Wunderground v.1.15,2013-07-09 10:05:00,
2013-07-09 06:10:00,74.4,71.6,30.10,WSW,248,0.0,-999.0,91,0.00,,,0.26,Wunderground v.1.15,2013-07-09 10:10:00,
2013-07-09 06:15:00,73.5,71.0,30.10,N/A,-737280,0.0,-999.0,92,0.00,,,0.26,Wunderground v.1.15,2013-07-09 10:15:00,
2013-07-09 06:20:00,73.5,71.0,30.10,N/A,-737280,0.0,-999.0,92,0.00,,,0.26,Wunderground v.1.15,2013-07-09 10:20:00,
2013-07-09 06:25:00,73.5,71.0,30.10,N/A,-737280,0.0,-999.0,92,0.00,,,0.26,Wunderground v.1.15,2013-07-09 10:25:00,
2013-07-09 06:30:00,73.5,71.0,30.10,N/A,-737280,0.0,-999.0,92,0.00,,,0.26,Wunderground v.1.15,2013-07-09 10:30:00,
2013-07-09 06:35:00,73.5,71.0,30.10,N/A,-737280,0.0,-999.0,92,0.00,,,0.26,Wunderground v.1.15,2013-07-09 10:35:00,
2013-07-09 06:40:00,73.5,71.0,30.10,N/A,-737280,0.0,-999.0,92,0.00,,,0.26,Wunderground v.1.15,2013-07-09 10:40:00,
2013-07-09 06:45:00,73.1,71.0,30.10,N/A,-737280,0.0,-999.0,93,0.00,,,0.26,Wunderground v.1.15,2013-07-09 10:45:00,
2013-07-09 06:50:00,73.1,71.0,30.10,N/A,-737280,0.0,-999.0,93,0.00,,,0.26,Wunderground v.1.15,2013-07-09 10:50:00,
2013-07-09 06:55:00,73.1,71.0,30.10,N/A,-737280,0.0,-999.0,93,0.00,,,0.26,Wunderground v.1.15,2013-07-09 10:55:00,
2013-07-09 07:00:00,73.1,71.0,30.10,N/A,-737280,0.0,-999.0,93,0.00,,,0.26,Wunderground v.1.15,2013-07-09 11:00:00,
2013-07-09 07:05:00,73.1,71.0,30.10,N/A,-737280,0.0,-999.0,93,0.00,,,0.26,Wunderground v.1.15,2013-07-09 11:05:00,
2013-07-09 07:10:00,73.1,71.0,30.10,N/A,-737280,0.0,-999.0,93,0.00,,,0.26,Wunderground v.1.15,2013-07-09 11:10:00,
2013-07-09 07:15:00,74.4,72.2,30.10,WSW,248,0.0,-999.0,93,0.00,,,0.26,Wunderground v.1.15,2013-07-09 11:15:00,
2013-07-09 07:20:00,74.4,72.2,30.10,WSW,248,0.0,-999.0,93,0.00,,,0.26,Wunderground v.1.15,2013-07-09 11:20:00,
2013-07-09 07:25:00,74.4,72.2,30.10,WSW,248,0.0,-999.0,93,0.00,,,0.26,Wunderground v.1.15,2013-07-09 11:25:00,
2013-07-09 07:30:00,74.4,72.2,30.10,WSW,248,0.0,-999.0,93,0.00,,,0.26,Wunderground v.1.15,2013-07-09 11:30:00,
2013-07-09 07:35:00,74.4,72.2,30.10,WSW,248,0.0,-999.0,93,0.00,,,0.26,Wunderground v.1.15,2013-07-09 11:35:00,
2013-07-09 07:40:00,74.4,72.2,30.10,WSW,248,0.0,-999.0,93,0.00,,,0.26,Wunderground v.1.15,2013-07-09 11:40:00,
2013-07-09 07:45:00,76.4,73.2,30.11,West,270,1.0,-999.0,90,0.00,,,0.26,Wunderground v.1.15,2013-07-09 11:45:00,
2013-07-09 07:50:00,76.4,73.2,30.11,West,270,1.0,-999.0,90,0.00,,,0.26,Wunderground v.1.15,2013-07-09 11:50:00,
2013-07-09 07:55:00,76.4,73.2,30.11,West,270,1.0,-999.0,90,0.00,,,0.26,Wunderground v.1.15,2013-07-09 11:55:00,
2013-07-09 08:00:00,76.4,73.2,30.11,West,270,1.0,-999.0,90,0.00,,,0.26,Wunderground v.1.15,2013-07-09 12:00:00,
2013-07-09 08:05:00,76.4,73.2,30.11,West,270,1.0,-999.0,90,0.00,,,0.26,Wunderground v.1.15,2013-07-09 12:05:00,
2013-07-09 08:10:00,76.4,73.2,30.11,West,270,1.0,-999.0,90,0.00,,,0.26,Wunderground v.1.15,2013-07-09 12:10:00,
2013-07-09 08:15:00,77.3,73.5,30.11,West,270,2.0,-999.0,88,0.00,,,0.26,Wunderground v.1.15,2013-07-09 12:15:00,
2013-07-09 08:20:00,77.3,73.5,30.11,West,270,2.0,-999.0,88,0.00,,,0.26,Wunderground v.1.15,2013-07-09 12:20:00,
2013-07-09 08:25:00,77.3,73.5,30.11,West,270,2.0,-999.0,88,0.00,,,0.26,Wunderground v.1.15,2013-07-09 12:25:00,
2013-07-09 08:30:00,77.3,73.5,30.11,West,270,2.0,-999.0,88,0.00,,,0.26,Wunderground v.1.15,2013-07-09 12:30:00,
2013-07-09 08:35:00,77.3,73.5,30.11,West,270,2.0,-999.0,88,0.00,,,0.26,Wunderground v.1.15,2013-07-09 12:35:00,
2013-07-09 08:40:00,77.3,73.5,30.11,West,270,2.0,-999.0,88,0.00,,,0.26,Wunderground v.1.15,2013-07-09 12:40:00,
2013-07-09 08:45:00,77.8,73.6,30.12,West,270,2.0,-999.0,87,0.00,,,0.26,Wunderground v.1.15,2013-07-09 12:45:00,
2013-07-09 08:50:00,77.8,73.6,30.12,West,270,2.0,-999.0,87,0.00,,,0.26,Wunderground v.1.15,2013-07-09 12:50:00,
2013-07-09 08:55:00,77.8,73.6,30.12,West,270,2.0,-999.0,87,0.00,,,0.26,Wunderground v.1.15,2013-07-09 12:55:00,
2013-07-09 09:00:00,77.8,73.6,30.12,West,270,2.0,-999.0,87,0.00,,,0.26,Wunderground v.1.15,2013-07-09 13:00:00,
2013-07-09 09:05:00,77.8,73.6,30.12,West,270,2.0,-999.0,87,0.00,,,0.26,Wunderground v.1.15,2013-07-09 13:05:00,
2013-07-09 09:10:00,77.8,73.6,30.12,West,270,2.0,-999.0,87,0.00,,,0.26,Wunderground v.1.15,2013-07-09 13:10:00,
2013-07-09 09:15:00,78.6,73.4,30.13,West,270,1.0,-999.0,84,0.00,,,0.26,Wunderground v.1.15,2013-07-09 13:15:00,
2013-07-09 09:20:00,78.6,73.4,30.13,West,270,1.0,-999.0,84,0.00,,,0.26,Wunderground v.1.15,2013-07-09 13:20:00,
2013-07-09 09:25:00,78.6,73.4,30.13,West,270,1.0,-999.0,84,0.00,,,0.26,Wunderground v.1.15,2013-07-09 13:25:00,
2013-07-09 09:30:00,78.6,73.4,30.13,West,270,1.0,-999.0,84,0.00,,,0.26,Wunderground v.1.15,2013-07-09 13:30:00,
2013-07-09 09:35:00,78.6,73.4,30.13,West,270,1.0,-999.0,84,0.00,,,0.26,Wunderground v.1.15,2013-07-09 13:35:00,
2013-07-09 09:40:00,78.6,73.4,30.13,West,270,1.0,-999.0,84,0.00,,,0.26,Wunderground v.1.15,2013-07-09 13:40:00,
2013-07-09 09:45:00,79.5,74.6,30.13,West,270,2.0,-999.0,85,0.00,,,0.26,Wunderground v.1.15,2013-07-09 13:45:00,
2013-07-09 09:50:00,79.5,74.6,30.13,West,270,2.0,-999.0,85,0.00,,,0.26,Wunderground v.1.15,2013-07-09 13:50:00,
2013-07-09 09:55:00,79.5,74.6,30.13,West,270,2.0,-999.0,85,0.00,,,0.26,Wunderground v.1.15,2013-07-09 13:55:00,
2013-07-09 10:00:00,79.5,74.6,30.13,West,270,2.0,-999.0,85,0.00,,,0.26,Wunderground v.1.15,2013-07-09 14:00:00,
2013-07-09 10:05:00,79.5,74.6,30.13,West,270,2.0,-999.0,85,0.00,,,0.26,Wunderground v.1.15,2013-07-09 14:05:00,
2013-07-09 10:10:00,79.5,74.6,30.13,West,270,2.0,-999.0,85,0.00,,,0.26,Wunderground v.1.15,2013-07-09 14:10:00,
2013-07-09 10:15:00,80.0,74.4,30.13,WNW,293,2.0,-999.0,83,0.00,,,0.26,Wunderground v.1.15,2013-07-09 14:15:00,
2013-07-09 10:20:00,80.0,74.4,30.13,WNW,293,2.0,-999.0,83,0.00,,,0.26,Wunderground v.1.15,2013-07-09 14:20:00,
2013-07-09 10:25:00,80.0,74.4,30.13,WNW,293,2.0,-999.0,83,0.00,,,0.26,Wunderground v.1.15,2013-07-09 14:25:00,
2013-07-09 10:30:00,80.0,74.4,30.13,WNW,293,2.0,-999.0,83,0.00,,,0.26,Wunderground v.1.15,2013-07-09 14:30:00,
2013-07-09 10:35:00,80.0,74.4,30.13,WNW,293,2.0,-999.0,83,0.00,,,0.26,Wunderground v.1.15,2013-07-09 14:35:00,
2013-07-09 10:40:00,80.0,74.4,30.13,WNW,293,2.0,-999.0,83,0.00,,,0.26,Wunderground v.1.15,2013-07-09 14:40:00,
2013-07-09 10:45:00,81.4,75.4,30.13,West,270,2.0,-999.0,82,0.00,,,0.26,Wunderground v.1.15,2013-07-09 14:45:00,
2013-07-09 10:50:00,81.4,75.4,30.13,West,270,2.0,-999.0,82,0.00,,,0.26,Wunderground v.1.15,2013-07-09 14:50:00,
2013-07-09 10:55:00,81.4,75.4,30.13,West,270,2.0,-999.0,82,0.00,,,0.26,Wunderground v.1.15,2013-07-09 14:55:00,
2013-07-09 11:00:00,81.4,75.4,30.13,West,270,2.0,-999.0,82,0.00,,,0.26,Wunderground v.1.15,2013-07-09 15:00:00,
2013-07-09 11:05:00,81.4,75.4,30.13,West,270,2.0,-999.0,82,0.00,,,0.26,Wunderground v.1.15,2013-07-09 15:05:00,
2013-07-09 11:10:00,81.4,75.4,30.13,West,270,2.0,-999.0,82,0.00,,,0.26,Wunderground v.1.15,2013-07-09 15:10:00,
2013-07-09 11:15:00,81.5,74.7,30.14,West,270,2.0,-999.0,80,0.00,,,0.26,Wunderground v.1.15,2013-07-09 15:15:00,
2013-07-09 11:20:00,81.5,74.7,30.14,West,270,2.0,-999.0,80,0.00,,,0.26,Wunderground v.1.15,2013-07-09 15:20:00,
2013-07-09 11:25:00,81.5,74.7,30.14,West,270,2.0,-999.0,80,0.00,,,0.26,Wunderground v.1.15,2013-07-09 15:25:00,
2013-07-09 11:30:00,81.5,74.7,30.14,West,270,2.0,-999.0,80,0.00,,,0.26,Wunderground v.1.15,2013-07-09 15:30:00,
2013-07-09 11:35:00,81.5,74.7,30.14,West,270,2.0,-999.0,80,0.00,,,0.26,Wunderground v.1.15,2013-07-09 15:35:00,
2013-07-09 11:40:00,81.5,74.7,30.14,West,270,2.0,-999.0,80,0.00,,,0.26,Wunderground v.1.15,2013-07-09 15:40:00,
2013-07-09 11:45:00,82.9,76.1,30.14,West,270,1.0,-999.0,80,0.00,,,0.26,Wunderground v.1.15,2013-07-09 15:45:00,
2013-07-09 11:50:00,82.9,76.1,30.14,West,270,1.0,-999.0,80,0.00,,,0.26,Wunderground v.1.15,2013-07-09 15:50:00,
2013-07-09 11:55:00,82.9,76.1,30.14,West,270,1.0,-999.0,80,0.00,,,0.26,Wunderground v.1.15,2013-07-09 15:55:00,
2013-07-09 12:00:00,82.9,76.1,30.14,West,270,1.0,-999.0,80,0.00,,,0.26,Wunderground v.1.15,2013-07-09 16:00:00,
2013-07-09 12:05:00,82.9,76.1,30.14,West,270,1.0,-999.0,80,0.00,,,0.26,Wunderground v.1.15,2013-07-09 16:05:00,
2013-07-09 12:10:00,82.9,76.1,30.14,West,270,1.0,-999.0,80,0.00,,,0.26,Wunderground v.1.15,2013-07-09 16:10:00,
2013-07-09 12:15:00,83.3,75.7,30.13,WNW,293,1.0,-999.0,78,0.00,,,0.26,Wunderground v.1.15,2013-07-09 16:15:00,
2013-07-09 12:20:00,83.3,75.7,30.13,WNW,293,1.0,-999.0,78,0.00,,,0.26,Wunderground v.1.15,2013-07-09 16:20:00,
2013-07-09 12:25:00,83.3,75.7,30.13,WNW,293,1.0,-999.0,78,0.00,,,0.26,Wunderground v.1.15,2013-07-09 16:25:00,
2013-07-09 12:30:00,83.3,75.7,30.13,WNW,293,1.0,-999.0,78,0.00,,,0.26,Wunderground v.1.15,2013-07-09 16:30:00,
2013-07-09 12:35:00,83.3,75.7,30.13,WNW,293,1.0,-999.0,78,0.00,,,0.26,Wunderground v.1.15,2013-07-09 16:35:00,
2013-07-09 12:40:00,83.3,75.7,30.13,WNW,293,1.0,-999.0,78,0.00,,,0.26,Wunderground v.1.15,2013-07-09 16:40:00,
2013-07-09 12:45:00,83.6,75.6,30.12,West,270,1.0,-999.0,77,0.00,,,0.26,Wunderground v.1.15,2013-07-09 16:45:00,
2013-07-09 12:50:00,83.6,75.6,30.12,West,270,1.0,-999.0,77,0.00,,,0.26,Wunderground v.1.15,2013-07-09 16:50:00,
2013-07-09 12:55:00,83.6,75.6,30.12,West,270,1.0,-999.0,77,0.00,,,0.26,Wunderground v.1.15,2013-07-09 16:55:00,
2013-07-09 13:00:00,83.6,75.6,30.12,West,270,1.0,-999.0,77,0.00,,,0.26,Wunderground v.1.15,2013-07-09 17:00:00,
2013-07-09 13:05:00,83.6,75.6,30.12,West,270,1.0,-999.0,77,0.00,,,0.26,Wunderground v.1.15,2013-07-09 17:05:00,
2013-07-09 13:10:00,83.6,75.6,30.12,West,270,1.0,-999.0,77,0.00,,,0.26,Wunderground v.1.15,2013-07-09 17:10:00,
2013-07-09 13:15:00,85.1,77.1,30.11,West,270,1.0,-999.0,77,0.00,,,0.26,Wunderground v.1.15,2013-07-09 17:15:00,
2013-07-09 13:20:00,85.1,77.1,30.11,West,270,1.0,-999.0,77,0.00,,,0.26,Wunderground v.1.15,2013-07-09 17:20:00,
2013-07-09 13:25:00,85.1,77.1,30.11,West,270,1.0,-999.0,77,0.00,,,0.26,Wunderground v.1.15,2013-07-09 17:25:00,
2013-07-09 13:30:00,85.1,77.1,30.11,West,270,1.0,-999.0,77,0.00,,,0.26,Wunderground v.1.15,2013-07-09 17:30:00,
2013-07-09 13:35:00,85.1,77.1,30.11,West,270,1.0,-999.0,77,0.00,,,0.26,Wunderground v.1.15,2013-07-09 17:35:00,
2013-07-09 13:40:00,85.1,77.1,30.11,West,270,1.0,-999.0,77,0.00,,,0.26,Wunderground v.1.15,2013-07-09 17:40:00,
2013-07-09 13:45:00,86.0,76.7,30.10,West,270,1.0,-999.0,74,0.00,,,0.26,Wunderground v.1.15,2013-07-09 17:45:00,
2013-07-09 13:50:00,86.0,76.7,30.10,West,270,1.0,-999.0,74,0.00,,,0.26,Wunderground v.1.15,2013-07-09 17:50:00,
2013-07-09 13:55:00,86.0,76.7,30.10,West,270,1.0,-999.0,74,0.00,,,0.26,Wunderground v.1.15,2013-07-09 17:55:00,
2013-07-09 14:00:00,86.0,76.7,30.10,West,270,1.0,-999.0,74,0.00,,,0.26,Wunderground v.1.15,2013-07-09 18:00:00,
2013-07-09 14:05:00,86.0,76.7,30.10,West,270,1.0,-999.0,74,0.00,,,0.26,Wunderground v.1.15,2013-07-09 18:05:00,
2013-07-09 14:10:00,86.0,76.7,30.10,West,270,1.0,-999.0,74,0.00,,,0.26,Wunderground v.1.15,2013-07-09 18:10:00,
2013-07-09 14:15:00,86.5,76.8,30.09,West,270,1.0,-999.0,73,0.00,,,0.26,Wunderground v.1.15,2013-07-09 18:15:00,
2013-07-09 14:20:00,86.5,76.8,30.09,West,270,1.0,-999.0,73,0.00,,,0.26,Wunderground v.1.15,2013-07-09 18:20:00,
2013-07-09 14:25:00,86.5,76.8,30.09,West,270,1.0,-999.0,73,0.00,,,0.26,Wunderground v.1.15,2013-07-09 18:25:00,
2013-07-09 14:30:00,86.5,76.8,30.09,West,270,1.0,-999.0,73,0.00,,,0.26,Wunderground v.1.15,2013-07-09 18:30:00,
2013-07-09 14:35:00,86.5,76.8,30.09,West,270,1.0,-999.0,73,0.00,,,0.26,Wunderground v.1.15,2013-07-09 18:35:00,
2013-07-09 14:40:00,86.5,76.8,30.09,West,270,1.0,-999.0,73,0.00,,,0.26,Wunderground v.1.15,2013-07-09 18:40:00,
2013-07-09 14:45:00,86.2,75.7,30.08,WNW,293,1.0,-999.0,71,0.00,,,0.26,Wunderground v.1.15,2013-07-09 18:45:00,
2013-07-09 14:50:00,86.2,75.7,30.08,WNW,293,1.0,-999.0,71,0.00,,,0.26,Wunderground v.1.15,2013-07-09 18:50:00,
2013-07-09 14:55:00,86.2,75.7,30.08,WNW,293,1.0,-999.0,71,0.00,,,0.26,Wunderground v.1.15,2013-07-09 18:55:00,
2013-07-09 15:00:00,86.2,75.7,30.08,WNW,293,1.0,-999.0,71,0.00,,,0.26,Wunderground v.1.15,2013-07-09 19:00:00,
2013-07-09 15:05:00,86.2,75.7,30.08,WNW,293,1.0,-999.0,71,0.00,,,0.26,Wunderground v.1.15,2013-07-09 19:05:00,
2013-07-09 15:10:00,86.2,75.7,30.08,WNW,293,1.0,-999.0,71,0.00,,,0.26,Wunderground v.1.15,2013-07-09 19:10:00,
2013-07-09 15:15:00,87.4,77.3,30.06,West,270,1.0,-999.0,72,0.00,,,0.26,Wunderground v.1.15,2013-07-09 19:15:00,
2013-07-09 15:20:00,87.4,77.3,30.06,West,270,1.0,-999.0,72,0.00,,,0.26,Wunderground v.1.15,2013-07-09 19:20:00,
2013-07-09 15:25:00,87.4,77.3,30.06,West,270,1.0,-999.0,72,0.00,,,0.26,Wunderground v.1.15,2013-07-09 19:25:00,
2013-07-09 15:30:00,87.4,77.3,30.06,West,270,1.0,-999.0,72,0.00,,,0.26,Wunderground v.1.15,2013-07-09 19:30:00,
2013-07-09 15:35:00,87.4,77.3,30.06,West,270,1.0,-999.0,72,0.00,,,0.26,Wunderground v.1.15,2013-07-09 19:35:00,
2013-07-09 15:40:00,87.4,77.3,30.06,West,270,1.0,-999.0,72,0.00,,,0.26,Wunderground v.1.15,2013-07-09 19:40:00,
2013-07-09 15:45:00,87.7,75.8,30.06,West,270,1.0,-999.0,68,0.00,,,0.26,Wunderground v.1.15,2013-07-09 19:45:00,
2013-07-09 15:50:00,87.7,75.8,30.06,West,270,1.0,-999.0,68,0.00,,,0.26,Wunderground v.1.15,2013-07-09 19:50:00,
2013-07-09 15:55:00,87.7,75.8,30.06,West,270,1.0,-999.0,68,0.00,,,0.26,Wunderground v.1.15,2013-07-09 19:55:00,
2013-07-09 16:00:00,87.7,75.8,30.06,West,270,1.0,-999.0,68,0.00,,,0.26,Wunderground v.1.15,2013-07-09 20:00:00,
2013-07-09 16:05:00,87.7,75.8,30.06,West,270,1.0,-999.0,68,0.00,,,0.26,Wunderground v.1.15,2013-07-09 20:05:00,
2013-07-09 16:10:00,87.7,75.8,30.06,West,270,1.0,-999.0,68,0.00,,,0.26,Wunderground v.1.15,2013-07-09 20:10:00,
2013-07-09 16:15:00,89.3,75.5,30.05,West,270,1.0,-999.0,64,0.00,,,0.26,Wunderground v.1.15,2013-07-09 20:15:00,
2013-07-09 16:20:00,89.3,75.5,30.05,West,270,1.0,-999.0,64,0.00,,,0.26,Wunderground v.1.15,2013-07-09 20:20:00,
2013-07-09 16:25:00,89.3,75.5,30.05,West,270,1.0,-999.0,64,0.00,,,0.26,Wunderground v.1.15,2013-07-09 20:25:00,
2013-07-09 16:30:00,89.3,75.5,30.05,West,270,1.0,-999.0,64,0.00,,,0.26,Wunderground v.1.15,2013-07-09 20:30:00,
2013-07-09 16:35:00,89.3,75.5,30.05,West,270,1.0,-999.0,64,0.00,,,0.26,Wunderground v.1.15,2013-07-09 20:35:00,
2013-07-09 16:40:00,89.3,75.5,30.05,West,270,1.0,-999.0,64,0.00,,,0.26,Wunderground v.1.15,2013-07-09 20:40:00,
2013-07-09 16:45:00,90.0,76.2,30.04,West,270,1.0,-999.0,64,0.00,,,0.26,Wunderground v.1.15,2013-07-09 20:45:00,
2013-07-09 16:50:00,90.0,76.2,30.04,West,270,1.0,-999.0,64,0.00,,,0.26,Wunderground v.1.15,2013-07-09 20:50:00,
2013-07-09 16:55:00,90.0,76.2,30.04,West,270,1.0,-999.0,64,0.00,,,0.26,Wunderground v.1.15,2013-07-09 20:55:00,
2013-07-09 17:00:00,90.0,76.2,30.04,West,270,1.0,-999.0,64,0.00,,,0.26,Wunderground v.1.15,2013-07-09 21:00:00,
2013-07-09 17:05:00,90.0,76.2,30.04,West,270,1.0,-999.0,64,0.00,,,0.26,Wunderground v.1.15,2013-07-09 21:05:00,
2013-07-09 17:10:00,90.0,76.2,30.04,West,270,1.0,-999.0,64,0.00,,,0.26,Wunderground v.1.15,2013-07-09 21:10:00,
2013-07-09 17:15:00,90.8,76.0,30.03,West,270,0.0,-999.0,62,0.00,,,0.26,Wunderground v.1.15,2013-07-09 21:15:00,
2013-07-09 17:20:00,90.8,76.0,30.03,West,270,0.0,-999.0,62,0.00,,,0.26,Wunderground v.1.15,2013-07-09 21:20:00,
2013-07-09 17:25:00,90.8,76.0,30.03,West,270,0.0,-999.0,62,0.00,,,0.26,Wunderground v.1.15,2013-07-09 21:25:00,
2013-07-09 17:30:00,90.8,76.0,30.03,West,270,0.0,-999.0,62,0.00,,,0.26,Wunderground v.1.15,2013-07-09 21:30:00,
2013-07-09 17:35:00,90.8,76.0,30.03,West,270,0.0,-999.0,62,0.00,,,0.26,Wunderground v.1.15,2013-07-09 21:35:00,
2013-07-09 17:40:00,90.8,76.0,30.03,West,270,0.0,-999.0,62,0.00,,,0.26,Wunderground v.1.15,2013-07-09 21:40:00,
2013-07-09 17:45:00,91.2,74.4,30.03,West,270,0.0,-999.0,58,0.00,,,0.26,Wunderground v.1.15,2013-07-09 21:45:00,
2013-07-09 17:50:00,91.2,74.4,30.03,West,270,0.0,-999.0,58,0.00,,,0.26,Wunderground v.1.15,2013-07-09 21:50:00,
2013-07-09 17:55:00,91.2,74.4,30.03,West,270,0.0,-999.0,58,0.00,,,0.26,Wunderground v.1.15,2013-07-09 21:55:00,
2013-07-09 18:00:00,91.2,74.4,30.03,West,270,0.0,-999.0,58,0.00,,,0.26,Wunderground v.1.15,2013-07-09 22:00:00,
2013-07-09 18:05:00,91.2,74.4,30.03,West,270,0.0,-999.0,58,0.00,,,0.26,Wunderground v.1.15,2013-07-09 22:05:00,
2013-07-09 18:10:00,91.2,74.4,30.03,West,270,0.0,-999.0,58,0.00,,,0.26,Wunderground v.1.15,2013-07-09 22:10:00,
2013-07-09 18:15:00,91.8,74.4,30.02,West,270,0.0,-999.0,57,0.00,,,0.26,Wunderground v.1.15,2013-07-09 22:15:00,
2013-07-09 18:20:00,91.8,74.4,30.02,West,270,0.0,-999.0,57,0.00,,,0.26,Wunderground v.1.15,2013-07-09 22:20:00,
2013-07-09 18:25:00,91.8,74.4,30.02,West,270,0.0,-999.0,57,0.00,,,0.26,Wunderground v.1.15,2013-07-09 22:25:00,
2013-07-09 18:30:00,91.8,74.4,30.02,West,270,0.0,-999.0,57,0.00,,,0.26,Wunderground v.1.15,2013-07-09 22:30:00,
2013-07-09 18:35:00,91.8,74.4,30.02,West,270,0.0,-999.0,57,0.00,,,0.26,Wunderground v.1.15,2013-07-09 22:35:00,
2013-07-09 18:40:00,91.8,74.4,30.02,West,270,0.0,-999.0,57,0.00,,,0.26,Wunderground v.1.15,2013-07-09 22:40:00,
2013-07-09 18:45:00,91.5,74.1,30.03,West,270,0.0,-999.0,57,0.00,,,0.26,Wunderground v.1.15,2013-07-09 22:45:00,
2013-07-09 18:50:00,91.5,74.1,30.03,West,270,0.0,-999.0,57,0.00,,,0.26,Wunderground v.1.15,2013-07-09 22:50:00,
2013-07-09 18:55:00,91.5,74.1,30.03,West,270,0.0,-999.0,57,0.00,,,0.26,Wunderground v.1.15,2013-07-09 22:55:00,
2013-07-09 19:00:00,91.5,74.1,30.03,West,270,0.0,-999.0,57,0.00,,,0.26,Wunderground v.1.15,2013-07-09 23:00:00,
2013-07-09 19:05:00,91.5,74.1,30.03,West,270,0.0,-999.0,57,0.00,,,0.26,Wunderground v.1.15,2013-07-09 23:05:00,
2013-07-09 19:10:00,91.5,74.1,30.03,West,270,0.0,-999.0,57,0.00,,,0.26,Wunderground v.1.15,2013-07-09 23:10:00,
2013-07-09 19:15:00,88.3,75.0,30.04,West,270,0.0,-999.0,65,0.00,,,0.26,Wunderground v.1.15,2013-07-09 23:15:00,
2013-07-09 19:20:00,88.3,75.0,30.04,West,270,0.0,-999.0,65,0.00,,,0.26,Wunderground v.1.15,2013-07-09 23:20:00,
2013-07-09 19:25:00,88.3,75.0,30.04,West,270,0.0,-999.0,65,0.00,,,0.26,Wunderground v.1.15,2013-07-09 23:25:00,
2013-07-09 19:30:00,88.3,75.0,30.04,West,270,0.0,-999.0,65,0.00,,,0.26,Wunderground v.1.15,2013-07-09 23:30:00,
2013-07-09 19:35:00,88.3,75.0,30.04,West,270,0.0,-999.0,65,0.00,,,0.26,Wunderground v.1.15,2013-07-09 23:35:00,
2013-07-09 19:40:00,88.3,75.0,30.04,West,270,0.0,-999.0,65,0.00,,,0.26,Wunderground v.1.15,2013-07-09 23:40:00,
2013-07-09 19:45:00,85.4,74.5,30.04,West,270,0.0,-999.0,70,0.00,,,0.26,Wunderground v.1.15,2013-07-09 23:45:00,
2013-07-09 19:50:00,85.4,74.5,30.04,West,270,0.0,-999.0,70,0.00,,,0.26,Wunderground v.1.15,2013-07-09 23:50:00,
2013-07-09 19:55:00,85.4,74.5,30.04,West,270,0.0,-999.0,70,0.00,,,0.26,Wunderground v.1.15,2013-07-09 23:55:00,
2013-07-09 20:00:00,85.4,74.5,30.04,West,270,0.0,-999.0,70,0.00,,,0.26,Wunderground v.1.15,2013-07-10 00:00:00,
2013-07-09 20:05:00,85.4,74.5,30.04,West,270,0.0,-999.0,70,0.00,,,0.26,Wunderground v.1.15,2013-07-10 00:05:00,
2013-07-09 20:10:00,85.4,74.5,30.04,West,270,0.0,-999.0,70,0.00,,,0.26,Wunderground v.1.15,2013-07-10 00:10:00,
2013-07-09 20:15:00,83.2,75.2,30.05,WNW,293,0.0,-999.0,77,0.00,,,0.26,Wunderground v.1.15,2013-07-10 00:15:00,
2013-07-09 20:20:00,83.2,75.2,30.05,WNW,293,0.0,-999.0,77,0.00,,,0.26,Wunderground v.1.15,2013-07-10 00:20:00,
2013-07-09 20:25:00,83.2,75.2,30.05,WNW,293,0.0,-999.0,77,0.00,,,0.26,Wunderground v.1.15,2013-07-10 00:25:00,
2013-07-09 20:30:00,83.2,75.2,30.05,WNW,293,0.0,-999.0,77,0.00,,,0.26,Wunderground v.1.15,2013-07-10 00:30:00,
2013-07-09 20:35:00,83.2,75.2,30.05,WNW,293,0.0,-999.0,77,0.00,,,0.26,Wunderground v.1.15,2013-07-10 00:35:00,
2013-07-09 20:40:00,83.2,75.2,30.05,WNW,293,0.0,-999.0,77,0.00,,,0.26,Wunderground v.1.15,2013-07-10 00:40:00,
2013-07-09 20:45:00,83.1,75.5,30.05,West,270,2.0,-999.0,78,0.00,,,0.26,Wunderground v.1.15,2013-07-10 00:45:00,
2013-07-09 20:50:00,83.1,75.5,30.05,West,270,2.0,-999.0,78,0.00,,,0.26,Wunderground v.1.15,2013-07-10 00:50:00,
2013-07-09 20:55:00,83.1,75.5,30.05,West,270,2.0,-999.0,78,0.00,,,0.26,Wunderground v.1.15,2013-07-10 00:55:00,
2013-07-09 21:00:00,83.1,75.5,30.05,West,270,2.0,-999.0,78,0.00,,,0.26,Wunderground v.1.15,2013-07-10 01:00:00,
2013-07-09 21:05:00,83.1,75.5,30.05,West,270,2.0,-999.0,78,0.00,,,0.26,Wunderground v.1.15,2013-07-10 01:05:00,
2013-07-09 21:10:00,83.1,75.5,30.05,West,270,2.0,-999.0,78,0.00,,,0.26,Wunderground v.1.15,2013-07-10 01:10:00,
2013-07-09 21:15:00,80.8,75.5,30.07,West,270,3.0,-999.0,84,0.00,,,0.26,Wunderground v.1.15,2013-07-10 01:15:00,
2013-07-09 21:20:00,80.8,75.5,30.07,West,270,3.0,-999.0,84,0.00,,,0.26,Wunderground v.1.15,2013-07-10 01:20:00,
2013-07-09 21:25:00,80.8,75.5,30.07,West,270,3.0,-999.0,84,0.00,,,0.26,Wunderground v.1.15,2013-07-10 01:25:00,
2013-07-09 21:30:00,80.8,75.5,30.07,West,270,3.0,-999.0,84,0.00,,,0.26,Wunderground v.1.15,2013-07-10 01:30:00,
2013-07-09 21:35:00,80.8,75.5,30.07,West,270,3.0,-999.0,84,0.00,,,0.26,Wunderground v.1.15,2013-07-10 01:35:00,
2013-07-09 21:40:00,80.8,75.5,30.07,West,270,3.0,-999.0,84,0.00,,,0.26,Wunderground v.1.15,2013-07-10 01:40:00,
2013-07-09 21:45:00,75.0,70.9,30.09,WSW,248,4.0,-999.0,87,0.16,,,0.26,Wunderground v.1.15,2013-07-10 01:45:00,
2013-07-09 21:50:00,75.0,70.9,30.09,WSW,248,4.0,-999.0,87,0.16,,,0.26,Wunderground v.1.15,2013-07-10 01:50:00,
2013-07-09 21:55:00,75.0,70.9,30.09,WSW,248,4.0,-999.0,87,0.16,,,0.26,Wunderground v.1.15,2013-07-10 01:55:00,
2013-07-09 22:00:00,75.0,70.9,30.09,WSW,248,4.0,-999.0,87,0.16,,,0.26,Wunderground v.1.15,2013-07-10 02:00:00,
2013-07-09 22:05:00,75.0,70.9,30.09,WSW,248,4.0,-999.0,87,0.16,,,0.26,Wunderground v.1.15,2013-07-10 02:05:00,
2013-07-09 22:10:00,75.0,70.9,30.09,WSW,248,4.0,-999.0,87,0.16,,,0.26,Wunderground v.1.15,2013-07-10 02:10:00,
2013-07-09 22:15:00,73.8,71.0,30.08,WSW,248,0.0,-999.0,91,0.26,,,0.26,Wunderground v.1.15,2013-07-10 02:15:00,
2013-07-09 22:20:00,73.8,71.0,30.08,WSW,248,0.0,-999.0,91,0.26,,,0.26,Wunderground v.1.15,2013-07-10 02:20:00,
2013-07-09 22:25:00,73.8,71.0,30.08,WSW,248,0.0,-999.0,91,0.26,,,0.26,Wunderground v.1.15,2013-07-10 02:25:00,
2013-07-09 22:30:00,73.8,71.0,30.08,WSW,248,0.0,-999.0,91,0.26,,,0.26,Wunderground v.1.15,2013-07-10 02:30:00,
2013-07-09 22:35:00,73.8,71.0,30.08,WSW,248,0.0,-999.0,91,0.26,,,0.26,Wunderground v.1.15,2013-07-10 02:35:00,
2013-07-09 22:40:00,73.8,71.0,30.08,WSW,248,0.0,-999.0,91,0.26,,,0.26,Wunderground v.1.15,2013-07-10 02:40:00,
2013-07-09 22:45:00,74.2,72.0,30.09,WSW,248,1.0,-999.0,93,0.10,,,0.26,Wunderground v.1.15,2013-07-10 02:45:00,
2013-07-09 22:50:00,74.2,72.0,30.09,WSW,248,1.0,-999.0,93,0.10,,,0.26,Wunderground v.1.15,2013-07-10 02:50:00,
2013-07-09 22:55:00,74.2,72.0,30.09,WSW,248,1.0,-999.0,93,0.10,,,0.26,Wunderground v.1.15,2013-07-10 02:55:00,
2013-07-09 23:00:00,74.2,72.0,30.09,WSW,248,1.0,-999.0,93,0.10,,,0.26,Wunderground v.1.15,2013-07-10 03:00:00,
2013-07-09 23:05:00,74.2,72.0,30.09,WSW,248,1.0,-999.0,93,0.10,,,0.26,Wunderground v.1.15,2013-07-10 03:05:00,
2013-07-09 23:10:00,74.2,72.0,30.09,WSW,248,1.0,-999.0,93,0.10,,,0.26,Wunderground v.1.15,2013-07-10 03:10:00,
2013-07-09 23:15:00,74.4,72.2,30.09,West,270,1.0,-999.0,93,0.00,,,0.26,Wunderground v.1.15,2013-07-10 03:15:00,
2013-07-09 23:20:00,74.4,72.2,30.09,West,270,1.0,-999.0,93,0.00,,,0.26,Wunderground v.1.15,2013-07-10 03:20:00,
2013-07-09 23:25:00,74.4,72.2,30.09,West,270,1.0,-999.0,93,0.00,,,0.26,Wunderground v.1.15,2013-07-10 03:25:00,
2013-07-09 23:30:00,74.4,72.2,30.09,West,270,1.0,-999.0,93,0.00,,,0.26,Wunderground v.1.15,2013-07-10 03:30:00,
2013-07-09 23:35:00,74.4,72.2,30.09,West,270,1.0,-999.0,93,0.00,,,0.26,Wunderground v.1.15,2013-07-10 03:35:00,
2013-07-09 23:40:00,74.4,72.2,30.09,West,270,1.0,-999.0,93,0.00,,,0.26,Wunderground v.1.15,2013-07-10 03:40:00,
2013-07-09 23:45:00,74.5,72.7,30.10,West,270,0.0,-999.0,94,0.00,,,0.26,Wunderground v.1.15,2013-07-10 03:45:00,
2013-07-09 23:50:00,74.5,72.7,30.10,West,270,0.0,-999.0,94,0.00,,,0.26,Wunderground v.1.15,2013-07-10 03:50:00,
2013-07-09 23:55:00,74.5,72.7,30.10,West,270,0.0,-999.0,94,0.00,,,0.26,Wunderground v.1.15,2013-07-10 03:55:00,